SAUDISAT 1C (SO-50)

Last updated on Sun Apr 12 2026 00:03:15 GMT+0000 (Coordinated Universal Time)

1 27607U 02058C 26101.05674177 .00000877 00000+0 12114-3 0 9997 2 27607 64.5532 336.6627 0075528 274.6900 84.5583 14.82903640254503
UTC large
Height (km)
Speed (km/s)
/
Latitude / Longitude
Inclination (degrees)
Orbital Period (minutes)
Azimuth
Elevation
Range (km)
Doppler Factor

Next 0 passes for location: London (51.5072 / 0.1276)

Sorry there are no passes over London.
SAUDISAT 1C (SO-50)